Flag for Tuvalu Weather past 2 weeks in Funafuti, Tuvalu

Now
88 °F

Broken clouds.


Feels Like: 102 °F
Forecast: 78 / 87 °F
Wind: 3 mph from North

Location: Funafuti


UV Index: 7 (High)

Visibility: N/A


Pressure: 29.77 "Hg

Humidity: 75%

Dew point: 79 °F

Location of FunafutiLocation

Historic Weather in Funafuti

°F

Funafuti temperature yesterday

Maximum temperature yesterday: 91 °F (at 11:00 AM)
Minimum temperature yesterday: 81 °F (at 1:00 AM)
Average temperature yesterday: 84 °F

Past Weeks' High & Low Weather Summary

 TemperatureHumidityPressure
High91 °F (Apr 10, 11:00 AM)94% (Apr 8, 5:00 AM)29.86 "Hg (Apr 8, 5:00 AM)
Low77 °F (Apr 8, 5:00 AM)63% (Apr 4, 12:00 PM)29.68 "Hg (Apr 9, 2:00 PM)
Average85 °F78%29.78 "Hg
* Reported Apr 2 12:00 Noon — Apr 17 12:00 Noon, Funafuti, Weather by CustomWeather, © 2014

Note: Actual official high and low records may vary slightly from our data, if they occured in-between our weather recording intervals... More about our weather records

Advertising

Historic Weather Conditions — Data for Previous 24 hours

 ConditionsComfort  
Time TempWeatherWind HumidityBarometerVisibility
12:00 PM
Apr 17
88 °FPartly sunny.3 mph75%29.80 "HgN/A
11:00 AM88 °FBroken clouds.5 mph75%29.83 "HgN/A
10:00 AM84 °FScattered showers. Broken clouds.3 mph84%29.83 "HgN/A
9:00 AM82 °FScattered showers. Broken clouds.5 mph84%29.83 "HgN/A
8:00 AM82 °FScattered showers. Broken clouds.3 mph84%29.80 "HgN/A
7:00 AM81 °FScattered showers. Broken clouds.No wind89%29.77 "HgN/A
6:00 AM82 °FRain showers. Mostly cloudy.No wind84%29.74 "HgN/A
4:00 AM82 °FSprinkles. Passing clouds.No wind84%29.74 "HgN/A
3:00 AM82 °FScattered showers. Passing clouds.No wind84%29.74 "HgN/A
2:00 AM82 °FPassing clouds.No wind84%29.77 "HgN/A
1:00 AM82 °FPassing clouds.3 mph84%29.80 "HgN/A
12:00 AM82 °FPassing clouds.7 mph84%29.80 "HgN/A
11:00 PM
Apr 16
82 °FPassing clouds.6 mph84%29.83 "HgN/A
10:00 PM82 °FPassing clouds.5 mph84%29.83 "HgN/A
9:00 PM82 °FPassing clouds.8 mph84%29.80 "HgN/A
8:00 PM82 °FPassing clouds.8 mph84%29.80 "HgN/A
7:00 PM82 °FPassing clouds.9 mph89%29.77 "HgN/A
6:00 PM84 °FPassing clouds.5 mph84%29.74 "HgN/A
5:00 PM84 °FScattered showers. Scattered clouds.8 mph84%29.74 "HgN/A
4:00 PM88 °FScattered showers. Broken clouds.7 mph79%N/AN/A
3:00 PM88 °FBroken clouds.7 mph79%29.71 "HgN/A
2:00 PM88 °FScattered showers. Broken clouds.7 mph75%29.74 "HgN/A
1:00 PM90 °FPartly sunny.7 mph67%29.77 "HgN/A
Weather by CustomWeather, © 2014

See weather overview